[[{"header":{"parameterUnit":"m.s-1","parameterCategory":2,"la1":30.2991,"la2":30.254,"lo1":-89.0895,"lo2":-89.0444,"dy":0.0017,"dx":0.0017,"nx":28,"ny":28,"refTime":"2024-06-09T21:00:00:Z","depth":"0","parameterNumber":2,"parameterNumberName":"U-component_of_CURRENTS"},"data":[0,0,0,0,0,0,0,0,0,0,0,0,0,0,0,0,0,0,0,0,0,0,0,0,0,0,0,0,0,0,0,0,0,0,0,0,0,0,0,0,0,0,0,0,0,0,0,0,0,0,0,0,0,0,0,0,0,0,-0.314,-0.3141,0,-0.3194,-0.3194,-0.3194,-0.3152,-0.3151,-0.3149,-0.3148,-0.3058,-0.3057,-0.3056,0,0,0,0,0,0,0,0,0,0,0,0,0,-0.2881,-0.2886,-0.314,-0.3141,-0.3143,-0.3194,-0.3194,-0.3195,-0.3152,-0.315,-0.3149,-0.3147,-0.3058,-0.3057,-0.3056,0,0,0,0,0,0,0,0,0,0,0,0,0,-0.2965,-0.2888,-0.314,-0.3132,-0.3132,-0.3194,-0.3194,-0.3195,-0.3152,-0.315,-0.3148,-0.3147,-0.3059,-0.3057,-0.3056,-0.3085,0,0,-0.305,-0.3049,0,0,0,0,0,0,0,0,-0.296,-0.2974,-0.3132,-0.3132,-0.3133,-0.3169,-0.307,-0.3153,-0.3153,-0.3139,-0.3148,-0.3146,-0.3087,-0.3083,-0.3092,-0.3081,-0.3077,-0.305,-0.3049,-0.3048,-0.3048,0,0,0,0,0,0,0,-0.2955,-0.2971,-0.3156,-0.3133,-0.3134,-0.3084,-0.3094,-0.3085,-0.3117,-0.314,-0.3138,-0.3154,-0.3085,-0.3094,-0.3089,-0.3075,-0.305,-0.3049,-0.3048,-0.3047,-0.3089,-0.3091,0,0,0,0,0,0,-0.2969,-0.2967,-0.3155,-0.3158,-0.3046,-0.3091,-0.3102,-0.3155,-0.312,-0.3115,-0.3155,-0.3151,-0.3098,-0.3091,-0.3085,-0.3098,-0.3048,-0.3047,-0.3046,-0.3087,-0.309,-0.3092,0,0,0,0,0,0,-0.2964,-0.2987,-0.3152,-0.3064,-0.3083,-0.31,-0.3157,-0.3157,-0.3157,-0.3134,-0.3125,-0.3155,-0.3096,-0.3088,-0.3089,-0.3094,-0.3046,-0.3044,-0.3084,-0.3088,-0.3091,-0.3135,0,0,0,0,0,0,-0.2957,-0.2985,-0.3003,-0.3068,-0.3089,-0.3189,-0.316,-0.316,-0.3173,-0.3168,-0.3131,-0.3121,-0.3094,-0.3092,-0.3087,-0.3091,-0.3043,-0.3082,-0.3086,-0.309,-0.3131,-0.314,-0.3147,0,0,0,0,0,-0.2948,-0.2979,-0.3005,-0.3026,-0.3123,-0.3191,-0.3197,-0.3195,-0.3175,-0.3184,-0.3168,-0.3122,-0.3114,-0.3093,-0.3086,-0.309,-0.308,-0.3085,-0.3089,-0.3128,-0.3138,-0.3147,0,0,0,0,0,0,-0.285,-0.2982,-0.3009,-0.3073,-0.3132,-0.3185,-0.3192,-0.32,-0.3198,-0.3183,-0.3149,-0.3141,-0.3146,-0.3125,-0.3103,-0.312,-0.3089,-0.3093,-0.3121,-0.313,-0.3138,-0.3108,-0.3042,0,0,0,0,0,-0.2852,-0.2916,-0.3023,-0.3063,-0.3109,-0.3153,-0.3171,-0.3185,-0.3205,-0.3201,-0.3184,-0.3169,-0.3168,-0.3152,-0.3151,-0.3156,-0.3132,-0.3159,-0.3167,-0.3173,-0.3149,-0.3125,-0.3127,-0.3108,-0.3108,-0.3108,0,0,-0.2812,-0.2897,-0.2924,-0.3046,-0.3093,-0.3148,-0.3157,-0.3202,-0.3214,-0.3191,-0.3191,-0.3198,-0.3181,-0.3192,-0.3191,-0.3166,-0.318,-0.3179,-0.3184,-0.3156,-0.313,-0.3131,-0.3132,-0.3111,-0.3111,-0.311,0,0,-0.277,-0.2867,-0.2907,-0.2985,-0.3081,-0.3125,-0.3144,-0.3218,-0.3222,-0.3248,-0.3236,-0.3248,-0.3242,-0.3235,-0.3227,-0.328,-0.323,-0.3287,-0.3284,-0.3262,-0.3262,-0.3262,-0.328,-0.328,-0.3279,-0.3279,-0.3279,0,-0.2714,-0.2785,-0.2915,-0.2987,-0.301,-0.3119,-0.3132,-0.3194,-0.3241,-0.3237,-0.3246,-0.3265,-0.3256,-0.3259,-0.3282,-0.3291,-0.3282,-0.3243,-0.3268,-0.3267,-0.3265,-0.3283,-0.3283,-0.3282,-0.3282,-0.3281,-0.3281,0,-0.2713,-0.2767,-0.2802,-0.293,-0.2982,-0.3017,-0.3132,-0.317,-0.3193,-0.3239,-0.3264,-0.329,-0.3277,-0.3309,-0.3304,-0.3304,-0.3307,-0.3287,-0.3232,-0.3269,-0.3287,-0.3286,-0.3286,-0.3285,-0.3284,-0.3283,0,0,-0.2595,-0.2756,-0.2767,-0.2782,-0.2939,-0.2972,-0.3035,-0.3093,-0.3117,-0.3199,-0.3208,-0.3248,-0.3276,-0.3271,-0.3293,-0.3298,-0.3311,-0.3286,-0.3284,-0.3284,-0.3288,-0.3135,-0.3119,-0.3285,-0.3284,-0.3284,-0.3321,0,-0.253,-0.2592,-0.2688,-0.2705,-0.274,-0.2853,-0.2897,-0.2981,-0.3059,-0.3132,-0.3205,-0.3241,-0.3263,-0.3264,-0.3276,-0.3316,-0.3302,-0.3304,-0.3268,-0.3267,-0.3108,-0.3109,-0.2865,-0.2861,-0.332,-0.3319,-0.3319,0,-0.2494,-0.2532,-0.2527,-0.2576,-0.2599,-0.2627,-0.2686,-0.2737,-0.2908,-0.2962,-0.3045,-0.3151,-0.3215,-0.322,-0.3264,-0.3264,-0.3252,-0.3285,-0.3285,-0.3109,-0.3107,-0.2891,-0.2841,-0.2822,-0.3317,-0.3317,-0.3317,0,-0.2342,-0.2406,-0.2361,-0.2399,-0.2506,-0.2485,-0.2519,-0.2669,-0.2714,-0.2864,-0.294,-0.3048,-0.3108,-0.3131,-0.322,-0.3228,-0.3276,-0.3284,-0.3136,-0.313,-0.2891,-0.2862,-0.2784,-0.3246,-0.3246,-0.3246,-0.3245,0,-0.2248,-0.2222,-0.2285,-0.229,-0.2241,-0.2342,-0.2338,-0.2413,-0.2551,-0.2633,-0.2824,-0.2919,-0.3081,-0.3176,-0.321,-0.3173,-0.3242,-0.3116,-0.3104,-0.2908,-0.288,-0.2827,-0.2879,-0.3247,-0.3247,-0.3246,-0.3246,0,-0.2128,-0.2169,-0.2142,-0.2185,-0.2189,-0.2158,-0.223,-0.2262,-0.2386,-0.2506,-0.2553,-0.2817,-0.2915,-0.3067,-0.3144,-0.3126,-0.3047,-0.3075,-0.286,-0.2816,-0.2618,-0.2682,-0.2587,-0.2526,-0.2913,-0.2909,-0.2906,0,-0.2072,-0.2048,-0.2063,-0.2048,-0.2061,-0.2046,-0.2065,-0.2162,-0.2217,-0.2442,-0.2496,-0.2672,-0.2764,-0.2856,-0.2829,-0.2819,-0.2886,-0.262,-0.255,-0.2542,-0.2608,-0.267,-0.2633,-0.2303,-0.2295,-0.2289,-0.2283,0,-0.1965,-0.1973,-0.1964,-0.1938,-0.1925,-0.1919,-0.1941,-0.1966,-0.2106,-0.2206,-0.2344,-0.2429,-0.2504,-0.2411,-0.2403,-0.2387,-0.2505,-0.2478,-0.2507,-0.2128,-0.2152,-0.2108,-0.241,-0.2225,-0.2231,-0.2235,-0.2238,-0.2241,-0.1883,-0.1853,-0.1844,-0.1806,-0.1799,-0.1776,-0.1736,-0.1804,-0.1842,-0.1932,-0.2072,-0.2091,-0.2066,-0.1987,-0.1983,-0.1862,-0.2027,-0.1819,-0.1912,-0.1989,-0.1853,-0.2032,-0.1798,-0.1801,-0.1804,-0.1806,-0.1809,0,-0.1766,-0.1745,-0.1713,-0.1663,-0.1608,-0.1643,-0.1645,-0.16,-0.1602,-0.1661,-0.1677,-0.1596,-0.1459,-0.1508,-0.1388,-0.1326,-0.1335,-0.1372,-0.1411,-0.1412,-0.1565,-0.1454,-0.1085,-0.1085,-0.1085,-0.1085,-0.1085,-0.1085,-0.1703,-0.1634,-0.1617,-0.1481,-0.1444,-0.1329,-0.13,-0.1276,-0.127,-0.1211,-0.1175,-0.1172,-0.1229,-0.127,-0.1179,-0.1125,-0.1185,-0.1089,-0.127,-0.1386,-0.1437,-0.1485,-0.1389,-0.1013,-0.1013,-0.0975,-0.0975,-0.0975]},{"header":{"parameterUnit":"m.s-1","parameterCategory":2,"la1":30.2991,"la2":30.254,"lo1":-89.0895,"lo2":-89.0444,"dy":0.0017,"dx":0.0017,"nx":28,"ny":28,"refTime":"2024-06-09T21:00:00:Z","depth":"0","parameterNumber":3,"parameterNumberName":"V-component_of_CURRENTS"},"data":[0,0,0,0,0,0,0,0,0,0,0,0,0,0,0,0,0,0,0,0,0,0,0,0,0,0,0,0,0,0,0,0,0,0,0,0,0,0,0,0,0,0,0,0,0,0,0,0,0,0,0,0,0,0,0,0,0,0,-0.027,-0.0268,0,-0.0031,-0.0028,-0.0026,0.0099,0.0099,0.0099,0.01,0.0271,0.0276,0.028,0,0,0,0,0,0,0,0,0,0,0,0,0,-0.0473,-0.0471,-0.0271,-0.0267,-0.0264,-0.0031,-0.0028,-0.0025,0.0099,0.0099,0.0099,0.01,0.027,0.0275,0.028,0,0,0,0,0,0,0,0,0,0,0,0,0,-0.0326,-0.047,-0.0271,-0.0174,-0.0163,-0.0032,-0.0028,-0.0024,0.0099,0.0099,0.01,0.01,0.0268,0.0275,0.0281,0.0314,0,0,0.0301,0.0304,0,0,0,0,0,0,0,0,-0.0334,-0.0319,-0.0191,-0.018,-0.0167,0.0005,-0.0036,0.0086,0.0099,-0.0002,0.01,0.01,0.0177,0.0191,0.0234,0.0322,0.0329,0.0301,0.0305,0.0308,0.031,0,0,0,0,0,0,0,-0.0345,-0.0327,-0.0177,-0.0188,-0.0173,-0.0091,-0.0071,-0.0011,0.008,0.0007,0.0017,0.0045,0.0182,0.0228,0.0239,0.0331,0.0301,0.0307,0.0311,0.0314,0.0484,0.0484,0,0,0,0,0,0,-0.038,-0.0338,-0.0184,-0.0169,-0.025,-0.0088,-0.0066,-0.0051,0.0082,0.0103,0.0045,0.005,0.0217,0.0231,0.0245,0.03,0.0308,0.0314,0.0318,0.0483,0.0484,0.0485,0,0,0,0,0,0,-0.0386,-0.037,-0.0194,-0.0246,-0.0218,-0.0086,-0.007,-0.0047,-0.0002,0.0111,0.0131,0.0065,0.0217,0.0236,0.0311,0.0306,0.0317,0.0323,0.0482,0.0483,0.0484,0.0402,0,0,0,0,0,0,-0.0393,-0.0373,-0.0381,-0.0249,-0.0216,-0.0129,-0.0069,-0.0042,0.0015,0.0025,0.0135,0.0152,0.0219,0.0301,0.0318,0.0316,0.0328,0.0482,0.0483,0.0484,0.0404,0.04,0.0397,0,0,0,0,0,-0.0401,-0.0413,-0.0383,-0.0364,-0.023,-0.0129,-0.0105,-0.0009,0.0015,0.0032,0.0118,0.0148,0.032,0.0308,0.0327,0.0326,0.0481,0.0482,0.0484,0.0406,0.0401,0.0397,0,0,0,0,0,0,-0.0497,-0.0397,-0.0362,-0.0342,-0.025,-0.0108,-0.0086,-0.0021,0.0062,0.0063,0.0164,0.0188,0.025,0.0302,0.0285,0.038,0.0402,0.0407,0.0336,0.0332,0.0329,0.0297,0.0334,0,0,0,0,0,-0.0526,-0.0515,-0.0394,-0.0379,-0.0343,-0.022,-0.0171,-0.0104,-0.0008,0.003,0.0112,0.0195,0.0272,0.0311,0.0383,0.0434,0.0457,0.0446,0.0442,0.0438,0.0427,0.0466,0.0464,0.0489,0.0489,0.0489,0,0,-0.0556,-0.0502,-0.0493,-0.0399,-0.0326,-0.0275,-0.019,-0.0125,-0.008,0.0031,0.01,0.0183,0.0284,0.0351,0.0381,0.0391,0.0441,0.044,0.0436,0.0427,0.0467,0.0465,0.0462,0.049,0.049,0.049,0,0,-0.0608,-0.0568,-0.0573,-0.0507,-0.0408,-0.0327,-0.0317,-0.0185,-0.013,-0.0048,0.0045,0.013,0.0238,0.0325,0.0377,0.0395,0.0419,0.0408,0.0365,0.0403,0.0401,0.0399,0.0402,0.0402,0.0406,0.0406,0.0406,0,-0.0649,-0.0632,-0.0555,-0.0534,-0.0484,-0.0362,-0.0338,-0.0262,-0.012,-0.0082,-0.0047,0.0139,0.0228,0.0322,0.0341,0.0385,0.0393,0.037,0.0395,0.0394,0.0393,0.0398,0.0398,0.0402,0.0403,0.0403,0.0404,0,-0.0691,-0.0673,-0.0669,-0.0607,-0.0549,-0.0506,-0.0391,-0.0339,-0.0264,-0.0178,-0.0078,0.0062,0.0167,0.0216,0.0291,0.0341,0.0341,0.0381,0.0395,0.0385,0.0391,0.0393,0.0397,0.0398,0.0399,0.04,0,0,-0.0769,-0.0714,-0.0707,-0.0688,-0.0581,-0.053,-0.0482,-0.0386,-0.0363,-0.0231,-0.0195,-0.0016,0.0053,0.0119,0.0225,0.0281,0.0298,0.0321,0.0325,0.0304,0.0344,0.0396,0.0403,0.0331,0.0331,0.0332,0.0341,0,-0.0813,-0.0813,-0.076,-0.0732,-0.0709,-0.0605,-0.0567,-0.0475,-0.0394,-0.0337,-0.0191,-0.0113,0.0016,0.0061,0.0139,0.0262,0.0301,0.0289,0.0375,0.0377,0.0409,0.0407,0.0448,0.0465,0.0342,0.0343,0.0343,0,-0.0851,-0.0843,-0.0848,-0.0789,-0.0772,-0.0743,-0.0668,-0.0614,-0.0516,-0.046,-0.0361,-0.0265,-0.0135,-0.0048,0.014,0.0119,0.0215,0.0307,0.031,0.0388,0.0433,0.0464,0.0473,0.0615,0.0346,0.0345,0.0345,0,-0.092,-0.0887,-0.0901,-0.0877,-0.0806,-0.0796,-0.0747,-0.0658,-0.0627,-0.0549,-0.0546,-0.0378,-0.0322,-0.0155,0.0064,0.0082,0.0235,0.0282,0.0413,0.0416,0.0485,0.0495,0.0629,0.0376,0.0376,0.0376,0.0376,0,-0.0963,-0.096,-0.0942,-0.0939,-0.0947,-0.087,-0.0867,-0.0805,-0.0751,-0.0752,-0.0619,-0.0597,-0.0352,-0.0224,-0.0013,0.0209,0.0177,0.0397,0.0429,0.0458,0.0464,0.0621,0.0671,0.0376,0.0376,0.0376,0.0376,0,-0.1013,-0.1005,-0.1016,-0.0987,-0.0981,-0.0982,-0.094,-0.0941,-0.0891,-0.0905,-0.0896,-0.0776,-0.0588,-0.0331,-0.0078,0.0089,0.0404,0.0392,0.0398,0.0432,0.0696,0.0738,0.0869,0.0952,0.052,0.0522,0.0523,0,-0.1032,-0.1055,-0.1067,-0.1082,-0.1071,-0.1067,-0.1069,-0.1008,-0.1017,-0.1006,-0.1029,-0.0893,-0.0728,-0.0336,-0.001,0.0342,0.0468,0.0519,0.0588,0.0713,0.0783,0.0805,0.0866,0.0631,0.0633,0.0635,0.0636,0,-0.1065,-0.109,-0.1104,-0.1148,-0.1168,-0.1184,-0.1188,-0.1217,-0.1185,-0.1186,-0.1141,-0.101,-0.0646,-0.0221,0.0196,0.0399,0.0619,0.0562,0.0702,0.089,0.091,0.1004,0.0593,0.0651,0.065,0.0649,0.0648,0.0647,-0.1089,-0.1122,-0.1162,-0.1197,-0.1232,-0.128,-0.1282,-0.1297,-0.1303,-0.1232,-0.1158,-0.0884,-0.0381,0.0256,0.0458,0.0823,0.0783,0.0948,0.0984,0.0991,0.1097,0.0705,0.0803,0.0802,0.0802,0.0801,0.0801,0,-0.1101,-0.1146,-0.1194,-0.1242,-0.1288,-0.1293,-0.1339,-0.1314,-0.1309,-0.1158,-0.0991,-0.0417,0.0107,0.0547,0.1056,0.1244,0.1278,0.1315,0.1363,0.1406,0.1076,0.1113,0.127,0.127,0.127,0.127,0.1269,0.1269,-0.1107,-0.1163,-0.1198,-0.1271,-0.1303,-0.1328,-0.1343,-0.1298,-0.1173,-0.0837,-0.0487,-0.017,0.0367,0.1115,0.1555,0.1591,0.1749,0.1718,0.1798,0.1585,0.1553,0.1524,0.1573,0.1824,0.1825,0.2129,0.2132,0.2134]}],[{"header":{"parameterUnit":"m.s-1","parameterCategory":2,"la1":30.2991,"la2":30.254,"lo1":-89.0895,"lo2":-89.0444,"dy":0.0017,"dx":0.0017,"nx":28,"ny":28,"refTime":"2024-06-09T21:00:00:Z","depth":"2","parameterNumber":2,"parameterNumberName":"U-component_of_CURRENTS"},"data":[0,0,0,0,0,0,0,0,0,0,0,0,0,0,0,0,0,0,0,0,0,0,0,0,0,0,0,0,0,0,0,0,0,0,0,0,0,0,0,0,0,0,0,0,0,0,0,0,0,0,0,0,0,0,0,0,0,0,-0.2605,-0.2607,0,-0.2718,-0.2719,-0.2719,-0.2724,-0.2724,-0.2723,-0.2722,-0.2779,-0.2781,-0.2783,0,0,0,0,0,0,0,0,0,0,0,0,0,-0.2425,-0.2427,-0.2605,-0.2607,-0.2609,-0.2718,-0.2719,-0.272,-0.2725,-0.2724,-0.2723,-0.2722,-0.2778,-0.278,-0.2783,0,0,0,0,0,0,0,0,0,0,0,0,0,-0.2511,-0.2428,-0.2605,-0.2629,-0.2633,-0.2718,-0.2719,-0.272,-0.2725,-0.2724,-0.2722,-0.2721,-0.2777,-0.278,-0.2784,-0.2828,0,0,-0.2794,-0.2795,0,0,0,0,0,0,0,0,-0.2506,-0.2517,-0.2623,-0.2627,-0.2632,-0.2711,-0.2676,-0.2755,-0.2725,-0.2684,-0.2722,-0.2721,-0.2756,-0.2761,-0.2777,-0.2831,-0.2833,-0.2794,-0.2796,-0.2798,-0.2799,0,0,0,0,0,0,0,-0.25,-0.2512,-0.2644,-0.2626,-0.2631,-0.2645,-0.2655,-0.2691,-0.2719,-0.2687,-0.2689,-0.2711,-0.2756,-0.2774,-0.2778,-0.2834,-0.2794,-0.2797,-0.2799,-0.28,-0.2958,-0.296,0,0,0,0,0,0,-0.2499,-0.2507,-0.264,-0.2648,-0.2571,-0.265,-0.266,-0.2682,-0.272,-0.2727,-0.2712,-0.2711,-0.2768,-0.2774,-0.278,-0.2826,-0.2798,-0.2801,-0.2803,-0.2955,-0.2958,-0.296,0,0,0,0,0,0,-0.2494,-0.2509,-0.2636,-0.2584,-0.2602,-0.2654,-0.2678,-0.2685,-0.2706,-0.2741,-0.2745,-0.2727,-0.2768,-0.2775,-0.2842,-0.2828,-0.2802,-0.2805,-0.2953,-0.2956,-0.2959,-0.2923,0,0,0,0,0,0,-0.2488,-0.2507,-0.2505,-0.2584,-0.2605,-0.2692,-0.268,-0.2688,-0.2724,-0.2723,-0.2755,-0.2759,-0.2767,-0.2837,-0.2845,-0.2832,-0.2808,-0.295,-0.2954,-0.2958,-0.2921,-0.2925,-0.2927,0,0,0,0,0,-0.2481,-0.2488,-0.2504,-0.252,-0.2606,-0.2694,-0.2705,-0.2734,-0.2726,-0.2744,-0.2781,-0.2758,-0.2867,-0.2843,-0.2852,-0.2838,-0.2948,-0.2953,-0.2958,-0.292,-0.2924,-0.2927,0,0,0,0,0,0,-0.2403,-0.2492,-0.2511,-0.2541,-0.2616,-0.2697,-0.2711,-0.274,-0.2784,-0.2778,-0.28,-0.2809,-0.2864,-0.2875,-0.2847,-0.2903,-0.2899,-0.2905,-0.2867,-0.2871,-0.2873,-0.2826,-0.2811,0,0,0,0,0,-0.2389,-0.2415,-0.2514,-0.2537,-0.2575,-0.2645,-0.2677,-0.2711,-0.277,-0.2786,-0.282,-0.2854,-0.2893,-0.29,-0.295,-0.2979,-0.2949,-0.2978,-0.2981,-0.2982,-0.2956,-0.292,-0.2915,-0.2976,-0.2976,-0.2976,0,0,-0.2367,-0.2416,-0.2432,-0.2522,-0.2574,-0.2625,-0.2659,-0.2722,-0.2747,-0.2787,-0.2828,-0.2881,-0.2915,-0.2956,-0.2976,-0.2955,-0.2955,-0.2989,-0.2989,-0.2961,-0.2924,-0.2917,-0.2911,-0.298,-0.2979,-0.2979,0,0,-0.234,-0.2384,-0.24,-0.2466,-0.2558,-0.2609,-0.2631,-0.2731,-0.2754,-0.282,-0.2855,-0.2908,-0.2963,-0.2985,-0.2996,-0.305,-0.2991,-0.3061,-0.3005,-0.2972,-0.2964,-0.2957,-0.2912,-0.2901,-0.3035,-0.3035,-0.3035,0,-0.2304,-0.2336,-0.242,-0.2461,-0.2491,-0.26,-0.2623,-0.2684,-0.2789,-0.2789,-0.2826,-0.2914,-0.2966,-0.2979,-0.3006,-0.3047,-0.3009,-0.2978,-0.2967,-0.296,-0.2953,-0.2908,-0.2897,-0.3034,-0.3034,-0.3034,-0.3034,0,-0.2302,-0.2326,-0.2347,-0.2421,-0.2471,-0.2518,-0.2617,-0.2664,-0.2706,-0.2747,-0.2797,-0.2892,-0.2919,-0.2961,-0.2998,-0.2983,-0.2966,-0.2989,-0.2938,-0.2943,-0.2898,-0.2886,-0.3032,-0.3033,-0.3033,-0.3033,0,0,-0.2219,-0.2318,-0.2322,-0.2332,-0.2445,-0.2487,-0.2532,-0.2582,-0.2594,-0.2685,-0.268,-0.2782,-0.2822,-0.2844,-0.291,-0.2898,-0.2854,-0.2912,-0.291,-0.2829,-0.2748,-0.2664,-0.2643,-0.2852,-0.285,-0.2849,-0.2734,0,-0.2181,-0.2212,-0.2273,-0.2294,-0.2317,-0.2405,-0.2441,-0.25,-0.2559,-0.2602,-0.2663,-0.2718,-0.2779,-0.2813,-0.2804,-0.287,-0.282,-0.2881,-0.2787,-0.2784,-0.2677,-0.2626,-0.2413,-0.2285,-0.2722,-0.272,-0.2719,0,-0.2145,-0.2167,-0.2168,-0.2213,-0.2231,-0.226,-0.2299,-0.2349,-0.2427,-0.2469,-0.2502,-0.2586,-0.2619,-0.2685,-0.268,-0.2706,-0.2703,-0.2734,-0.273,-0.2645,-0.2677,-0.2356,-0.2247,-0.2699,-0.27,-0.2702,-0.2703,0,-0.2031,-0.2082,-0.2059,-0.2085,-0.2172,-0.2163,-0.2202,-0.2282,-0.2321,-0.2384,-0.2423,-0.2459,-0.2517,-0.2503,-0.2596,-0.2613,-0.2585,-0.2612,-0.2512,-0.2506,-0.2303,-0.2282,-0.2547,-0.2547,-0.2548,-0.2548,-0.2548,0,-0.1956,-0.1943,-0.2004,-0.2006,-0.199,-0.2067,-0.2072,-0.2127,-0.221,-0.224,-0.2342,-0.2383,-0.2475,-0.2506,-0.2532,-0.2481,-0.251,-0.2465,-0.2455,-0.229,-0.227,-0.2623,-0.2634,-0.2544,-0.2545,-0.2546,-0.2546,0,-0.1848,-0.1888,-0.1878,-0.1931,-0.1942,-0.1931,-0.2009,-0.203,-0.2113,-0.2159,-0.218,-0.2309,-0.232,-0.2401,-0.2419,-0.2402,-0.2376,-0.2348,-0.215,-0.2117,-0.2323,-0.2334,-0.2163,-0.2158,-0.2155,-0.2152,-0.2149,0,-0.1797,-0.1778,-0.1814,-0.1812,-0.1832,-0.1842,-0.1866,-0.1961,-0.1991,-0.2105,-0.2114,-0.218,-0.216,-0.2157,-0.2146,-0.2091,-0.2259,-0.1906,-0.1896,-0.2267,-0.2276,-0.2293,-0.2308,-0.1617,-0.161,-0.1605,-0.16,0,-0.1701,-0.1713,-0.1717,-0.1711,-0.1718,-0.1733,-0.1764,-0.1784,-0.1888,-0.1914,-0.1933,-0.1916,-0.1907,-0.1767,-0.1754,-0.172,-0.1894,-0.1788,-0.2192,-0.1766,-0.1747,-0.176,-0.1793,-0.1551,-0.1556,-0.156,-0.1563,-0.1565,-0.163,-0.161,-0.1614,-0.1599,-0.1612,-0.1605,-0.1578,-0.1619,-0.162,-0.1625,-0.1691,-0.1599,-0.1598,-0.1425,-0.1376,-0.1385,-0.1514,-0.1481,-0.15,-0.1524,-0.1499,-0.1477,-0.1224,-0.1227,-0.123,-0.1232,-0.1234,0,-0.1529,-0.1517,-0.1503,-0.1483,-0.1452,-0.1492,-0.1497,-0.145,-0.1391,-0.1387,-0.1336,-0.1169,-0.1027,-0.1081,-0.096,-0.0941,-0.0955,-0.0953,-0.0964,-0.1009,-0.1051,-0.1007,-0.0599,-0.0598,-0.0597,-0.0596,0,0,-0.1476,-0.1424,-0.1414,-0.1322,-0.1306,-0.1222,-0.1195,-0.114,-0.1105,-0.0993,-0.0925,-0.0944,-0.0971,-0.0777,-0.0731,-0.0643,-0.083,-0.0612,-0.1105,-0.1157,-0.1198,-0.1321,-0.1299,0,0,0,0,0]},{"header":{"parameterUnit":"m.s-1","parameterCategory":2,"la1":30.2991,"la2":30.254,"lo1":-89.0895,"lo2":-89.0444,"dy":0.0017,"dx":0.0017,"nx":28,"ny":28,"refTime":"2024-06-09T21:00:00:Z","depth":"2","parameterNumber":3,"parameterNumberName":"V-component_of_CURRENTS"},"data":[0,0,0,0,0,0,0,0,0,0,0,0,0,0,0,0,0,0,0,0,0,0,0,0,0,0,0,0,0,0,0,0,0,0,0,0,0,0,0,0,0,0,0,0,0,0,0,0,0,0,0,0,0,0,0,0,0,0,-0.0255,-0.0253,0,-0.0056,-0.0054,-0.0051,0.0067,0.0068,0.0068,0.0069,0.0286,0.0291,0.0296,0,0,0,0,0,0,0,0,0,0,0,0,0,-0.0404,-0.0403,-0.0255,-0.0253,-0.025,-0.0056,-0.0053,-0.0051,0.0067,0.0068,0.0068,0.0069,0.0284,0.029,0.0297,0,0,0,0,0,0,0,0,0,0,0,0,0,-0.0285,-0.0402,-0.0256,-0.0169,-0.0159,-0.0057,-0.0053,-0.005,0.0067,0.0068,0.0068,0.0069,0.0282,0.029,0.0298,0.0335,0,0,0.0322,0.0326,0,0,0,0,0,0,0,0,-0.0292,-0.028,-0.0184,-0.0175,-0.0164,-0.0019,-0.0026,0.0079,0.0067,-0.0018,0.0069,0.0069,0.0184,0.02,0.0238,0.0345,0.0354,0.0323,0.0328,0.0331,0.0334,0,0,0,0,0,0,0,-0.0301,-0.0287,-0.0175,-0.0182,-0.0169,-0.0096,-0.0079,-0.0005,0.0078,-0.001,-0.0001,0.0019,0.019,0.023,0.0244,0.0357,0.0323,0.033,0.0335,0.0338,0.0547,0.0548,0,0,0,0,0,0,-0.0335,-0.0295,-0.0181,-0.0169,-0.0229,-0.0094,-0.0076,-0.0066,0.0078,0.01,0.0018,0.0023,0.0215,0.0234,0.0252,0.0334,0.0331,0.0339,0.0344,0.0547,0.0548,0.0548,0,0,0,0,0,0,-0.0339,-0.0327,-0.0189,-0.0228,-0.0205,-0.0094,-0.0082,-0.0062,-0.0022,0.0099,0.0121,0.0037,0.0217,0.024,0.0333,0.0342,0.0343,0.035,0.0546,0.0547,0.0548,0.0478,0,0,0,0,0,0,-0.0345,-0.033,-0.0337,-0.0231,-0.0205,-0.0139,-0.0082,-0.0059,-0.0011,-0.0002,0.0122,0.0143,0.0219,0.032,0.0341,0.0353,0.0356,0.0545,0.0546,0.0548,0.048,0.0477,0.0474,0,0,0,0,0,-0.0351,-0.0362,-0.0339,-0.0325,-0.0217,-0.0139,-0.0119,-0.0035,-0.0011,0.0003,0.0099,0.0139,0.0343,0.0328,0.0352,0.0366,0.0544,0.0546,0.0548,0.0481,0.0477,0.0474,0,0,0,0,0,0,-0.0424,-0.0348,-0.032,-0.0307,-0.0235,-0.012,-0.0102,-0.0047,0.004,0.0046,0.0157,0.0186,0.027,0.0325,0.0306,0.043,0.0447,0.0453,0.0387,0.0385,0.0382,0.0352,0.0363,0,0,0,0,0,-0.0448,-0.0441,-0.0349,-0.0339,-0.0313,-0.0213,-0.0173,-0.0117,-0.0025,0.0013,0.0104,0.02,0.0295,0.0343,0.0429,0.0496,0.0518,0.0519,0.0516,0.0513,0.0506,0.0551,0.0551,0.0554,0.0554,0.0554,0,0,-0.0474,-0.0432,-0.0426,-0.0355,-0.0297,-0.0257,-0.0187,-0.0137,-0.0096,0.0022,0.0098,0.0194,0.0311,0.0397,0.0437,0.0444,0.052,0.0515,0.0512,0.0506,0.0552,0.0552,0.0551,0.0555,0.0555,0.0554,0,0,-0.0519,-0.0488,-0.0495,-0.0443,-0.0369,-0.0301,-0.0295,-0.0186,-0.0136,-0.0054,0.0051,0.0157,0.0277,0.0386,0.045,0.0481,0.0505,0.0495,0.0461,0.0505,0.0504,0.0504,0.0505,0.0506,0.0493,0.0493,0.0493,0,-0.0553,-0.0542,-0.0483,-0.0467,-0.0426,-0.0331,-0.0312,-0.0246,-0.0117,-0.0072,-0.0048,0.0172,0.0277,0.0408,0.043,0.0476,0.0478,0.0462,0.0498,0.0499,0.05,0.0502,0.0503,0.049,0.049,0.049,0.0491,0,-0.0592,-0.0578,-0.0577,-0.0528,-0.0479,-0.0448,-0.0352,-0.0302,-0.0237,-0.0156,-0.0034,0.0118,0.0246,0.0303,0.0382,0.0459,0.0448,0.0486,0.0496,0.0495,0.0497,0.05,0.0485,0.0486,0.0487,0.0488,0,0,-0.0662,-0.0618,-0.0612,-0.0596,-0.0507,-0.0466,-0.0415,-0.0323,-0.0286,-0.0171,-0.0109,0.0085,0.0158,0.0237,0.0355,0.0415,0.0439,0.0442,0.0446,0.0424,0.0486,0.0522,0.0529,0.0466,0.0467,0.0468,0.0474,0,-0.0702,-0.0704,-0.0657,-0.0631,-0.0614,-0.052,-0.0476,-0.0385,-0.0302,-0.0225,-0.0074,0.0029,0.0133,0.0198,0.0273,0.0414,0.0446,0.0431,0.0508,0.0509,0.0528,0.0535,0.05,0.0507,0.0477,0.0477,0.0478,0,-0.0738,-0.0731,-0.0735,-0.0675,-0.0659,-0.0632,-0.0541,-0.0488,-0.0366,-0.0305,-0.019,-0.0082,0.0067,0.0127,0.0314,0.0288,0.0367,0.0455,0.0458,0.0519,0.0553,0.0513,0.0514,0.0483,0.0482,0.0482,0.0482,0,-0.0797,-0.0769,-0.0779,-0.0758,-0.0689,-0.0672,-0.0624,-0.0515,-0.0472,-0.036,-0.0327,-0.0155,-0.0069,0.0062,0.0264,0.027,0.043,0.0463,0.0558,0.0559,0.0562,0.0564,0.0545,0.0545,0.0545,0.0545,0.0545,0,-0.0834,-0.0831,-0.0816,-0.0815,-0.0813,-0.074,-0.0715,-0.0646,-0.0562,-0.0521,-0.0379,-0.0305,-0.0087,0.0047,0.0207,0.0396,0.0381,0.0546,0.0573,0.0536,0.0536,0.0551,0.0552,0.0545,0.0545,0.0545,0.0545,0,-0.0875,-0.0871,-0.0879,-0.085,-0.0844,-0.084,-0.0786,-0.0763,-0.0685,-0.0636,-0.061,-0.0429,-0.024,-0.0028,0.02,0.0325,0.0506,0.0565,0.0491,0.0511,0.0602,0.06,0.065,0.0651,0.0653,0.0654,0.0655,0,-0.089,-0.0912,-0.0924,-0.0937,-0.0927,-0.0917,-0.0907,-0.0832,-0.0804,-0.0693,-0.0673,-0.0498,-0.0324,0.0016,0.0264,0.0512,0.0536,0.0591,0.0627,0.0597,0.0618,0.0613,0.0609,0.0582,0.0582,0.0583,0.0583,0,-0.0916,-0.094,-0.0953,-0.0994,-0.1007,-0.1009,-0.099,-0.0988,-0.0905,-0.0831,-0.0699,-0.0557,-0.0249,0.0057,0.0358,0.0498,0.0558,0.0604,0.0598,0.0576,0.0539,0.0558,0.0554,0.0585,0.0584,0.0584,0.0584,0.0584,-0.0936,-0.0965,-0.1004,-0.1034,-0.1059,-0.1079,-0.107,-0.1028,-0.0964,-0.083,-0.0714,-0.0467,-0.0227,0.025,0.0445,0.0606,0.0621,0.0663,0.0659,0.0656,0.0663,0.0632,0.0693,0.0693,0.0694,0.0694,0.0694,0,-0.0944,-0.0985,-0.1028,-0.1068,-0.1101,-0.1104,-0.1102,-0.1062,-0.0969,-0.0804,-0.0623,-0.0327,0.0001,0.0244,0.0513,0.0675,0.0649,0.0683,0.0625,0.0623,0.0621,0.0623,0.0644,0.0644,0.0645,0.0645,0,0,-0.0949,-0.0998,-0.1029,-0.1088,-0.1117,-0.1133,-0.1128,-0.1045,-0.0916,-0.0705,-0.0507,-0.0256,0.0036,0.0219,0.0412,0.0541,0.0533,0.0537,0.0562,0.0467,0.0463,0.0594,0.0594,0,0,0,0,0]}],[{"header":{"parameterUnit":"m.s-1","parameterCategory":2,"la1":30.2991,"la2":30.254,"lo1":-89.0895,"lo2":-89.0444,"dy":0.0017,"dx":0.0017,"nx":28,"ny":28,"refTime":"2024-06-09T21:00:00:Z","depth":"4","parameterNumber":2,"parameterNumberName":"U-component_of_CURRENTS"},"data":[0,0,0,0,0,0,0,0,0,0,0,0,0,0,0,0,0,0,0,0,0,0,0,0,0,0,0,0,0,0,0,0,0,0,0,0,0,0,0,0,0,0,0,0,0,0,0,0,0,0,0,0,0,0,0,0,0,0,-0.1387,-0.1387,0,-0.1345,-0.1345,-0.1345,-0.1353,-0.1353,-0.1354,-0.1354,-0.1294,-0.1292,-0.129,0,0,0,0,0,0,0,0,0,0,0,0,0,-0.1489,-0.1487,-0.1387,-0.1387,-0.1386,-0.1345,-0.1345,-0.1345,-0.1353,-0.1353,-0.1354,-0.1354,-0.1294,-0.1292,-0.1289,0,0,0,0,0,0,0,0,0,0,0,0,0,-0.1448,-0.1487,-0.1388,-0.1383,-0.1382,-0.1345,-0.1345,-0.1344,-0.1352,-0.1353,-0.1354,-0.1355,-0.1295,-0.1292,-0.1289,-0.1255,0,0,-0.1279,-0.1278,0,0,0,0,0,0,0,0,-0.1451,-0.1445,-0.1384,-0.1383,-0.1382,-0.1352,-0.1358,-0.1313,-0.1352,-0.1367,-0.1354,-0.1355,-0.1309,-0.1305,-0.13,-0.1252,-0.125,-0.1279,-0.1277,-0.1276,-0.1275,0,0,0,0,0,0,0,-0.1453,-0.1447,-0.1374,-0.1383,-0.1382,-0.1387,-0.1382,-0.135,-0.1336,-0.1366,-0.1365,-0.1356,-0.1309,-0.1303,-0.1298,-0.1249,-0.1279,-0.1277,-0.1275,-0.1273,-0.126,-0.1261,0,0,0,0,0,0,-0.1451,-0.1449,-0.1375,-0.1372,-0.1415,-0.1384,-0.1379,-0.1363,-0.1337,-0.1333,-0.1355,-0.1356,-0.1308,-0.1302,-0.1296,-0.1324,-0.1276,-0.1273,-0.1271,-0.1258,-0.126,-0.1262,0,0,0,0,0,0,-0.1453,-0.1444,-0.1377,-0.1408,-0.14,-0.1382,-0.1364,-0.1362,-0.1389,-0.1329,-0.1325,-0.1388,-0.1308,-0.13,-0.1305,-0.1319,-0.1272,-0.1269,-0.1257,-0.1259,-0.1261,-0.1335,0,0,0,0,0,0,-0.1456,-0.1445,-0.1454,-0.1407,-0.1397,-0.1381,-0.1363,-0.1361,-0.1379,-0.1381,-0.1354,-0.1348,-0.1308,-0.1311,-0.1302,-0.1314,-0.1266,-0.1255,-0.1258,-0.126,-0.133,-0.1339,-0.1347,0,0,0,0,0,-0.146,-0.1463,-0.1455,-0.1447,-0.1403,-0.1382,-0.1379,-0.137,-0.138,-0.1398,-0.1388,-0.135,-0.1323,-0.1309,-0.1299,-0.131,-0.1253,-0.1257,-0.126,-0.1327,-0.1337,-0.1346,0,0,0,0,0,0,-0.1502,-0.1462,-0.1452,-0.1441,-0.1425,-0.1383,-0.1391,-0.1393,-0.14,-0.1406,-0.1367,-0.1359,-0.1366,-0.1336,-0.1323,-0.1318,-0.1282,-0.1284,-0.1336,-0.1346,-0.1354,-0.1319,-0.1264,0,0,0,0,0,-0.1515,-0.1517,-0.1473,-0.147,-0.1458,-0.1435,-0.1434,-0.1428,-0.1414,-0.142,-0.1406,-0.1387,-0.1365,-0.1359,-0.1334,-0.1331,-0.1312,-0.1334,-0.1342,-0.1349,-0.1317,-0.1301,-0.1304,-0.1273,-0.1273,-0.1273,0,0,-0.153,-0.1509,-0.151,-0.1482,-0.1462,-0.1452,-0.1438,-0.1438,-0.1445,-0.1408,-0.1431,-0.1415,-0.1373,-0.137,-0.1371,-0.1351,-0.1366,-0.1354,-0.136,-0.1322,-0.1305,-0.1308,-0.131,-0.1275,-0.1275,-0.1274,0,0,-0.1549,-0.1538,-0.1542,-0.1535,-0.1515,-0.1491,-0.1502,-0.1482,-0.1492,-0.1511,-0.148,-0.1457,-0.1465,-0.1403,-0.1379,-0.1413,-0.1411,-0.1448,-0.1455,-0.1442,-0.1444,-0.1444,-0.1497,-0.1501,-0.1451,-0.1451,-0.1451,0,-0.1565,-0.1558,-0.1543,-0.1543,-0.1541,-0.1514,-0.1518,-0.1513,-0.151,-0.1512,-0.1534,-0.1502,-0.1456,-0.1408,-0.1423,-0.1421,-0.1464,-0.1421,-0.1451,-0.145,-0.145,-0.1502,-0.1506,-0.1455,-0.1455,-0.1454,-0.1454,0,-0.1571,-0.1584,-0.1584,-0.1572,-0.1577,-0.1574,-0.1555,-0.1571,-0.1589,-0.1576,-0.1576,-0.1525,-0.1496,-0.1492,-0.1466,-0.1443,-0.1497,-0.1465,-0.1421,-0.1457,-0.1512,-0.1515,-0.1461,-0.1459,-0.1458,-0.1457,0,0,-0.1533,-0.158,-0.158,-0.1594,-0.1595,-0.1586,-0.1606,-0.1592,-0.1608,-0.1607,-0.1622,-0.1553,-0.1536,-0.1504,-0.1471,-0.1446,-0.1486,-0.1475,-0.1473,-0.152,-0.1549,-0.1394,-0.1383,-0.1499,-0.1498,-0.1498,-0.1616,0,-0.153,-0.155,-0.1584,-0.1607,-0.1601,-0.162,-0.1647,-0.1645,-0.1655,-0.1667,-0.1597,-0.1591,-0.1541,-0.1546,-0.151,-0.1489,-0.1489,-0.1461,-0.151,-0.1512,-0.136,-0.1375,-0.1495,-0.1618,-0.1618,-0.1619,-0.1619,0,-0.1494,-0.152,-0.1549,-0.1621,-0.1625,-0.165,-0.1679,-0.1703,-0.1702,-0.1724,-0.1692,-0.1667,-0.1602,-0.1573,-0.1535,-0.1552,-0.155,-0.1534,-0.1538,-0.1346,-0.1355,-0.1556,-0.1623,-0.1623,-0.1623,-0.1622,-0.1622,0,-0.1421,-0.1487,-0.1514,-0.1531,-0.1604,-0.1641,-0.168,-0.1708,-0.1729,-0.1743,-0.1758,-0.1715,-0.1678,-0.1668,-0.1596,-0.1613,-0.158,-0.1592,-0.1453,-0.1448,-0.1523,-0.152,-0.156,-0.156,-0.156,-0.1559,-0.1559,0,-0.1363,-0.139,-0.1489,-0.1497,-0.1551,-0.162,-0.1672,-0.1714,-0.1762,-0.1748,-0.1767,-0.1719,-0.1701,-0.1663,-0.1645,-0.1537,-0.1614,-0.1436,-0.1436,-0.1566,-0.1566,-0.1531,-0.1526,-0.1564,-0.1563,-0.1562,-0.1561,0,-0.1266,-0.1329,-0.137,-0.1475,-0.1511,-0.1545,-0.1663,-0.1689,-0.1756,-0.1741,-0.1743,-0.1733,-0.1672,-0.1652,-0.1617,-0.1549,-0.1496,-0.1439,-0.1617,-0.163,-0.1396,-0.1394,-0.1346,-0.1341,-0.1337,-0.1333,-0.133,0,-0.122,-0.1225,-0.1335,-0.1368,-0.1422,-0.1495,-0.1544,-0.1656,-0.1671,-0.1693,-0.1659,-0.1626,-0.1586,-0.1454,-0.1444,-0.1427,-0.1374,-0.1398,-0.1342,-0.1352,-0.136,-0.1365,-0.1369,-0.1323,-0.1322,-0.1321,-0.1319,0,-0.1135,-0.118,-0.1221,-0.1282,-0.1341,-0.1401,-0.1472,-0.1477,-0.1557,-0.1622,-0.1524,-0.1463,-0.1381,-0.1336,-0.131,-0.1282,-0.1414,-0.1352,-0.1362,-0.1309,-0.1324,-0.1337,-0.1346,-0.1304,-0.1306,-0.1308,-0.1309,0,-0.1081,-0.1088,-0.1144,-0.1188,-0.1259,-0.128,-0.1337,-0.1348,-0.1383,-0.142,-0.1361,-0.1327,-0.1338,-0.1255,-0.1223,-0.1186,-0.1172,-0.1161,-0.1181,-0.1198,-0.1076,-0.1068,-0.095,0,0,0,0,0,-0.102,-0.1015,-0.1049,-0.1094,-0.1159,-0.1194,-0.1276,-0.133,-0.1389,-0.1287,-0.1332,-0.1241,-0.115,-0.1141,-0.1069,-0.1151,-0.1187,-0.1063,-0.1188,-0.1219,-0.1237,-0.1096,0,0,0,0,0,0,-0.098,-0.1003,-0.101,-0.1002,-0.1011,-0.1067,-0.1112,-0.1155,-0.1121,-0.1173,-0.1135,-0.1165,-0.1108,-0.1162,-0.1037,-0.1036,-0.1092,-0.1062,-0.1059,-0.1209,-0.1225,-0.1239,-0.1101,0,0,0,0,0]},{"header":{"parameterUnit":"m.s-1","parameterCategory":2,"la1":30.2991,"la2":30.254,"lo1":-89.0895,"lo2":-89.0444,"dy":0.0017,"dx":0.0017,"nx":28,"ny":28,"refTime":"2024-06-09T21:00:00:Z","depth":"4","parameterNumber":3,"parameterNumberName":"V-component_of_CURRENTS"},"data":[0,0,0,0,0,0,0,0,0,0,0,0,0,0,0,0,0,0,0,0,0,0,0,0,0,0,0,0,0,0,0,0,0,0,0,0,0,0,0,0,0,0,0,0,0,0,0,0,0,0,0,0,0,0,0,0,0,0,-0.0256,-0.0256,0,-0.0214,-0.0214,-0.0213,-0.0181,-0.0181,-0.018,-0.018,-0.0267,-0.027,-0.0272,0,0,0,0,0,0,0,0,0,0,0,0,0,-0.0297,-0.0296,-0.0256,-0.0256,-0.0255,-0.0214,-0.0214,-0.0213,-0.0181,-0.0181,-0.018,-0.018,-0.0266,-0.0269,-0.0272,0,0,0,0,0,0,0,0,0,0,0,0,0,-0.0271,-0.0296,-0.0256,-0.0233,-0.0231,-0.0214,-0.0214,-0.0213,-0.0181,-0.0181,-0.018,-0.018,-0.0265,-0.0269,-0.0273,-0.031,0,0,-0.0285,-0.0287,0,0,0,0,0,0,0,0,-0.0272,-0.0269,-0.0237,-0.0235,-0.0232,-0.0201,-0.026,-0.0252,-0.0182,-0.0201,-0.018,-0.0179,-0.0257,-0.0261,-0.0255,-0.0314,-0.0318,-0.0286,-0.0288,-0.029,-0.0291,0,0,0,0,0,0,0,-0.0274,-0.0271,-0.0241,-0.0237,-0.0233,-0.0221,-0.0217,-0.0257,-0.0236,-0.02,-0.0197,-0.019,-0.0256,-0.0251,-0.0257,-0.0319,-0.0286,-0.0289,-0.0292,-0.0293,-0.0475,-0.0477,0,0,0,0,0,0,-0.0278,-0.0273,-0.0242,-0.0239,-0.025,-0.022,-0.0216,-0.0213,-0.0233,-0.0234,-0.0191,-0.0189,-0.0244,-0.0252,-0.026,-0.0287,-0.029,-0.0294,-0.0296,-0.0472,-0.0475,-0.0478,0,0,0,0,0,0,-0.0279,-0.0276,-0.0244,-0.0254,-0.0249,-0.022,-0.0217,-0.0212,-0.0207,-0.0225,-0.0228,-0.0191,-0.0244,-0.0254,-0.0284,-0.0291,-0.0295,-0.0299,-0.0469,-0.0473,-0.0476,-0.0353,0,0,0,0,0,0,-0.0281,-0.0277,-0.0284,-0.0254,-0.0248,-0.0241,-0.0217,-0.0212,-0.0203,-0.02,-0.0227,-0.0233,-0.0244,-0.0278,-0.0288,-0.0296,-0.0302,-0.0466,-0.0471,-0.0475,-0.0354,-0.0352,-0.035,0,0,0,0,0,-0.0282,-0.0294,-0.0284,-0.0281,-0.0256,-0.0241,-0.0238,-0.0216,-0.0204,-0.0208,-0.0211,-0.0232,-0.0316,-0.0281,-0.0293,-0.0303,-0.0464,-0.047,-0.0475,-0.0355,-0.0352,-0.035,0,0,0,0,0,0,-0.0317,-0.029,-0.028,-0.0283,-0.0266,-0.0236,-0.024,-0.0221,-0.0225,-0.0227,-0.0238,-0.0245,-0.0289,-0.0328,-0.029,-0.0381,-0.0405,-0.0413,-0.0311,-0.0309,-0.0307,-0.0265,-0.0306,0,0,0,0,0,-0.0328,-0.0331,-0.03,-0.0306,-0.0298,-0.027,-0.0264,-0.0247,-0.0241,-0.024,-0.0248,-0.0284,-0.0324,-0.0335,-0.0388,-0.0414,-0.0391,-0.0446,-0.0444,-0.0441,-0.0424,-0.038,-0.0368,-0.0495,-0.0495,-0.0495,0,0,-0.0346,-0.0331,-0.0334,-0.0314,-0.0301,-0.0289,-0.0266,-0.026,-0.0246,-0.0255,-0.0252,-0.0284,-0.0339,-0.0366,-0.0392,-0.0389,-0.0394,-0.0448,-0.0444,-0.0429,-0.0383,-0.037,-0.0357,-0.0499,-0.0498,-0.0498,0,0,-0.038,-0.0368,-0.0379,-0.0362,-0.0341,-0.0317,-0.0316,-0.0285,-0.027,-0.0271,-0.0282,-0.0296,-0.0359,-0.0366,-0.0388,-0.0418,-0.0398,-0.0466,-0.0392,-0.0348,-0.0334,-0.0322,-0.0246,-0.0228,-0.0445,-0.0445,-0.0445,0,-0.0403,-0.0405,-0.0381,-0.0379,-0.0362,-0.0328,-0.0324,-0.0305,-0.0284,-0.026,-0.0273,-0.0304,-0.0355,-0.0348,-0.0357,-0.0405,-0.0361,-0.0375,-0.0333,-0.0321,-0.0311,-0.0237,-0.0218,-0.044,-0.044,-0.0441,-0.0441,0,-0.0436,-0.0434,-0.0439,-0.0418,-0.0397,-0.0394,-0.035,-0.0327,-0.0304,-0.0269,-0.0257,-0.0282,-0.0291,-0.0322,-0.0343,-0.0306,-0.0291,-0.0336,-0.0308,-0.0288,-0.0214,-0.0197,-0.0432,-0.0434,-0.0436,-0.0437,0,0,-0.0483,-0.0468,-0.0467,-0.046,-0.0414,-0.0402,-0.0365,-0.0313,-0.0276,-0.0246,-0.0187,-0.023,-0.0207,-0.0234,-0.0251,-0.0201,-0.0092,-0.022,-0.022,-0.0089,0.0056,0.0003,0.0017,-0.0102,-0.01,-0.0098,0.0092,0,-0.0513,-0.0526,-0.0496,-0.049,-0.0484,-0.0423,-0.0393,-0.0335,-0.0282,-0.0218,-0.0181,-0.0172,-0.0184,-0.0185,-0.0125,-0.0125,-0.0046,-0.0137,-0.0034,-0.003,-0.0034,0.0033,-0.0089,0.0105,0.0109,0.0112,0.0114,0,-0.0538,-0.0542,-0.0554,-0.0515,-0.0506,-0.0495,-0.041,-0.038,-0.0269,-0.0227,-0.0142,-0.011,-0.0032,-0.0069,0.0057,0.0012,0.0048,0.0072,0.0079,-0.0,-0.0053,0.0062,0.0145,0.0143,0.0141,0.0139,0.0137,0,-0.0571,-0.0567,-0.0582,-0.0571,-0.0531,-0.0514,-0.0485,-0.0386,-0.0347,-0.0227,-0.0174,-0.0054,-0.0017,0.0075,0.0129,0.0107,0.0275,0.0234,0.0247,0.0245,0.0188,0.0172,0.034,0.034,0.034,0.0339,0.0338,0,-0.0589,-0.0597,-0.0611,-0.0615,-0.0619,-0.0568,-0.054,-0.0477,-0.0383,-0.0311,-0.0195,-0.0112,0.002,0.0133,0.0188,0.0284,0.0326,0.0292,0.0294,0.0231,0.0218,0.0203,0.0185,0.0346,0.0345,0.0343,0.0342,0,-0.0603,-0.0619,-0.0638,-0.0635,-0.0639,-0.0641,-0.06,-0.0564,-0.0475,-0.0368,-0.0331,-0.014,0.0012,0.0148,0.0292,0.0332,0.0422,0.0437,0.0407,0.0397,0.0366,0.0351,0.0512,0.0511,0.0511,0.0511,0.0511,0,-0.0606,-0.0629,-0.0671,-0.0693,-0.0699,-0.0703,-0.0694,-0.0623,-0.0567,-0.0383,-0.0324,-0.0145,-0.0013,0.0193,0.0306,0.0466,0.0444,0.0518,0.0419,0.0401,0.0386,0.0371,0.0356,0.0511,0.0511,0.0511,0.0511,0,-0.0609,-0.0645,-0.0665,-0.0724,-0.0746,-0.0754,-0.073,-0.0695,-0.0572,-0.0496,-0.0308,-0.0158,0.0024,0.0189,0.0309,0.0404,0.0488,0.0516,0.0517,0.0424,0.0401,0.0383,0.0369,0.051,0.051,0.051,0.051,0,-0.0614,-0.0641,-0.0693,-0.0732,-0.0772,-0.0775,-0.0763,-0.0682,-0.0623,-0.0416,-0.0357,-0.0143,-0.0004,0.0158,0.0267,0.0364,0.0369,0.0376,0.0383,0.0385,0.0258,0.0205,0.0288,0,0,0,0,0,-0.0606,-0.0641,-0.0687,-0.0732,-0.0775,-0.0795,-0.0761,-0.073,-0.0614,-0.0497,-0.0424,-0.0255,-0.0035,0.0074,0.0159,0.0236,0.0368,0.0336,0.0374,0.0506,0.0507,0.037,0,0,0,0,0,0,-0.0603,-0.0654,-0.0682,-0.0725,-0.0757,-0.0788,-0.0772,-0.0699,-0.0625,-0.0497,-0.0388,-0.0271,-0.0075,-0.0099,0.0147,0.0185,0.0212,0.0453,0.0454,0.0506,0.0507,0.0507,0.0366,0,0,0,0,0]}]]